Location: Newark
(36.0797°N, 3.9744°E)
Time: 12:52:17
(UTC+00:00)

Vanguard 2 Rocket - Pass Details

Date: 13 December 2019
Orbit: 554 x 3326 km, 32.9° (Epoch: 27 January)

Event Time Altitude Azimuth Distance (km) Brightness Sun altitude
Rises 21:46:09 0° 279° (W) 5,026 11.1 -62.6°
Enters shadow 21:49:49 - 274° (W) 3,760 10.3 -63.2°
Reaches altitude 10° 21:50:25 10° 272° (W) 3,549 - -63.4°
Maximum altitude 21:57:46 35° 210° (SSW) 1,513 - -64.7°
Drops below altitude 10° 22:02:28 10° 145° (SE) 2,243 - -65.6°
Sets 22:04:36 0° 135° (SE) 2,984 - -66.0°
